Regional Weather Roundup
Issued by NWS Sterling, VA

Home | Current Version | Previous Version | Text Only | Print | Product List | Glossary On
Versions: 1 2 3 4 5 6 7 8 9 10 11 12 13 14 15 16 17 18 19 20 21 22 23 24 25 26 27 28 29 30 31 32 33 34 35 36 37 38 39 40 41 42 43 44 45 46 47 48 49 50
000
ASUS41 KLWX 211610
RWRLWX

REGIONAL WEATHER ROUNDUP
NATIONAL WEATHER SERVICE BALTIMORE MD/WASHINGTON DC
1100 AM EST SAT JAN 21 2017

Note: "FAIR" indicates few or no clouds below 12,000 feet
with no significant weather and/or obstructions to visibility.
 TC=TEMPERATURE CELSIUS

 * =Non NWS site. Station does not report precipitation (e.g. rain,
    snow, etc.), thunder, or fog.

DCZ001-MDZ009-015-VAZ040>042-051-053>054-211700-
WASHINGTON METRO

CITY           SKY/WX    TMP DP  RH WIND       PRES   REMARKS
WASHINGTON NAT CLOUDY    49  48  97 S7        29.91F
DULLES         FOG       47  46  97 S5        29.90F VSB 1/8
ANDREWS AFB    CLOUDY    48  48 100 S7        29.89F
FT BELVOIR     CLOUDY    49  47  95 VRB3      29.91S
QUANTICO       FOG       46  46 100 SW5       29.93S VSB 3/4
COLLEGE PARK*  CLOUDY    46  45  93 S3        29.91F
LEESBURG*      CLOUDY    48  48 100 S5        29.91S FOG
GAITHERSBURG*  CLOUDY    46  43  87 CALM      29.94F VSB 1

$$

MDZ006>007-011-014-211700-
BALTIMORE METRO

CITY           SKY/WX    TMP DP  RH WIND       PRES   REMARKS
BWI AIRPORT    CLOUDY    47  47 100 W3        29.91F FOG
MD SCIENCE CTR   N/A     48  45  89 MISG      29.92F
MARTIN STATE   FOG       45  45 100 CALM      29.94F VSB 3/4
ANNAPOLIS      FOG       44  42  93 SE6       29.91F VSB 1/2
FORT MEADE*    CLOUDY    46  45  93 S3        29.93F

$$

MDZ012-015-019>023-211700-
MARYLAND EASTERN SHORE

CITY           SKY/WX    TMP DP  RH WIND       PRES   REMARKS
OCEAN CITY     FOG       46  46 100 W6        29.93F VSB 1/4
SALISBURY      FOG       47  46  97 SW5       29.93F VSB 1
BAY BRIDGE AP* CLOUDY    46  46 100 MISG      29.92F FOG
CAMBRIDGE*     CLOUDY    45  45 100 S7        29.92F
EASTON*        FOG       46  46 100 S6        29.95F VSB 1

$$

MDZ017>025-211700-
SOUTHERN MARYLAND

CITY           SKY/WX    TMP DP  RH WIND       PRES   REMARKS
PATUXENT RIVER CLOUDY    46  46 100 S8        29.92F FOG
ST INIGOES     CLOUDY    47  46  97 S7        29.92F FOG
LEONARDTOWN*   CLOUDY    45  45 100 S3        29.93F

$$

MDZ003>005-211700-
NORTH CENTRAL MARYLAND

CITY           SKY/WX    TMP DP  RH WIND       PRES   REMARKS
FREDERICK*     CLOUDY    46  46 100 S3        29.93F FOG
HAGERSTOWN APT FOG       44  43  96 CALM      29.88F VSB 1/4
WESTMINSTER*     N/A     45  45 100 CALM      29.89F FOG

$$

MDZ501>502-211700-
WESTERN MARYLAND

CITY           SKY/WX    TMP DP  RH WIND       PRES   REMARKS
OAKLAND*         N/A     54  46  76 S9        29.84S
CUMBERLAND*    CLOUDY    43  43 100 CALM      29.90F VSB 1/4

$$

VAZ025>031-211700-
SHENANDOAH VALLEY

CITY           SKY/WX    TMP DP  RH WIND       PRES   REMARKS
WINCHESTER*    FOG       41  41 100 CALM      29.88S VSB 1/4
FRONT ROYAL*   CLOUDY    43  43 100 CALM      29.87F VSB 1/4
LURAY*         FOG       45  45 100 CALM      29.87F VSB 1/4
NEW MARKET*    CLOUDY    44  43  96 W3        29.87F VSB 1/4
STAUNTON*      FOG       45  45 100 CALM      29.90S VSB 1/2
WAYNESBORO*    SUNNY     53  48  85 CALM      29.87F

$$

WVZ021-048>050-054>055-211700-
EASTERN WEST VIRGINIA PANHANDLE

CITY           SKY/WX    TMP DP  RH WIND       PRES   REMARKS
MARTINSBURG    FOG       42  41  96 CALM      29.88F VSB 1/2
PETERSBURG*    CLOUDY    42  42  99 CALM      29.86F FOG

$$

VAZ036>039-050-211700-
CENTRAL FOOTHILLS

CITY           SKY/WX    TMP DP  RH WIND       PRES   REMARKS
CHARLOTTESVILL CLOUDY    49  48  97 S3        29.90S FOG
CULPEPER*      CLOUDY    49  49  99 S3        29.91F FOG
ORANGE*          N/A     48  48 100 CALM      29.92F FOG
GORDONSVILLE*  CLOUDY    48  48 100 SW3       29.90F FOG
WARRENTON*     CLOUDY    49  47  90 S5        29.90S

$$

VAZ055>057-211700-
NORTH AND CENTRAL PIEDMONT

CITY           SKY/WX    TMP DP  RH WIND       PRES   REMARKS
FREDERICKSBRG* CLOUDY    50  50 100 S3        29.91S
STAFFORD*      CLOUDY    48  48 100 CALM      29.95S FOG

$$

NCZ024-NYZ072-PAZ021-071-VAZ022-071-211700-
OTHER REGIONAL OBSERVATIONS

CITY           SKY/WX    TMP DP  RH WIND       PRES   REMARKS
NEW YORK CITY  CLOUDY    43  41  93 W6        29.90F FOG
PHILADELPHIA   CLOUDY    45  44  97 W7        29.93R FOG
PITTSBURGH     MOSUNNY   55  50  83 S6        29.77F
ROANOKE        FOG       46  46 100 CALM      29.92F VSB 1/4
RICHMOND       CLOUDY    48  48 100 S5        29.92F FOG
RALEIGH        FOG       52  52 100 CALM      29.91F VSB 1/8

$$

ANZ530>537-211700-
MARINE OBSERVATIONS

STATION/POSITION TIME  TEMP    WIND        PRES
                       AIR SEA DIR/SP/G
                 (UTC) (F)     (DEG/KT/KT) (MB)
THOMAS PT LIGHT  1600   43 40  160/  8/  8   N/A
BALT KEY BRIDGE  1542   45     130/  3/  4 1013.1F
COVE POINT       1542   44     180/  8/  9 1013.8F
LEWISETTA        1542   46 44  210/  7/  8 1013.3S
SOLOMONS ISLAND  1542   45 41  170/  6/  6   N/A
PINEY POINT      1542          190/  5/  5   N/A

$$




USA.gov is the U.S. government's official web portal to all federal, state and local government web resources and services.